Flag for Germany Weather past 2 weeks in Schwerin, Mecklenburg-Western Pomerania, Germany

Now
58 °F

Light rain. Overcast.


Feels Like: 58 °F
Forecast: 53 / 63 °F
Wind: 6 mph from Southwest

Location: Schwerin

Current Time: Jul 28, 2015 at 3:54:41 AM

Latest Report: Jul 28, 2015 at 3:00 AM


Visibility: 4 mi

Pressure: 29.50 "Hg

Humidity: 96%

Dew point: 57 °F

Location of SchwerinLocation

Historic Weather in Schwerin — Graph

°F

Schwerin temperature yesterday

Maximum temperature yesterday: 66 °F (at 4:00 PM)
Minimum temperature yesterday: 55 °F (at 3:00 AM)
Average temperature yesterday: 60 °F

Past Weeks' High & Low Weather Summary

 TemperatureHumidityPressure
High86 °F (Jul 17, 6:00 PM)99% (Jul 24, 5:00 AM)30.09 "Hg (Jul 24, 5:00 AM)
Low51 °F (Jul 24, 4:00 AM)37% (Jul 24, 3:00 PM)29.44 "Hg (Jul 25, 2:00 PM)
Average64 °F74%29.87 "Hg
* Reported Jul 13 3:00 AM — Jul 28 3:00 AM, Schwerin, Weather by CustomWeather, © 2015

Note: Actual official high and low records may vary slightly from our data, if they occured in-between our weather recording intervals... More about our weather records

Advertising

Schwerin weather history for previous 24 hours

 ConditionsComfort  
Time TempWeatherWind HumidityBarometerVisibility
3:00 AM
Tue, Jul 28
58 °FLight rain. Overcast.6 mph96%29.50 "Hg4 mi
2:00 AM58 °FDrizzle. Overcast.5 mph96%29.50 "Hg7 mi
1:00 AM58 °FOvercast.6 mph95%29.50 "Hg9 mi
10:00 PM
Mon, Jul 27
61 °FLight freezing rain. Overcast.6 mph94%29.50 "Hg6 mi
9:00 PM61 °FLight rain. Overcast.6 mph96%29.50 "Hg7 mi
8:00 PM61 °FOvercast.3 mph95%29.50 "Hg8 mi
7:00 PM59 °FLight rain. Partly sunny.2 mph96%29.50 "Hg7 mi
6:00 PM64 °FOvercast.2 mph81%29.50 "Hg16 mi
5:00 PM65 °FOvercast.1 mph77%29.50 "Hg15 mi
4:00 PM66 °FOvercast.2 mph72%29.47 "Hg17 mi
3:00 PM62 °FDrizzle. Overcast.3 mph82%29.50 "Hg11 mi
2:00 PM62 °FOvercast.3 mph84%29.50 "Hg12 mi
1:00 PM62 °FOvercast.5 mph75%29.54 "Hg17 mi
12:00 PM62 °FPartly sunny.3 mph72%29.54 "Hg19 mi
10:00 AM58 °FOvercast.3 mph76%29.56 "Hg19 mi
9:00 AM57 °FLight rain. Overcast.2 mph81%29.57 "Hg14 mi
8:00 AM56 °FDrizzle. Overcast.2 mph81%29.59 "Hg19 mi
7:00 AM56 °FOvercast.3 mph78%29.61 "Hg19 mi
4:00 AM55 °FLight rain. Overcast.2 mph84%29.67 "Hg17 mi
3:00 AM55 °FLight rain. Haze.2 mph86%29.70 "Hg9 mi
Weather by CustomWeather, © 2015

See weather overviewHow to use our weather pages